GMA502 EGHH-EKSB

Flight info

Callsign GMA502
Flight time 1h 24m
Altitude 41000
Route GWC DCT OCK UM185 KOBBI M197 BRAIN Q295 SOMVA DCT MAVAS DCT ANDIK M105 AMRAK P999 ALS
Aircraft CL60/M-SADE3FGHIJ3J4J7P2RWXY/HB1D1

Departure

Time 2026-05-03 20:15
Airport Bournemouth Airport (EGHH)

Arrival

Time 2026-05-03 21:39
Airport Sønderborg Airport (EKSB)
Time Latitude Longitude Altitude Speed Heading
2026-05-03 20:15 50.82702 -1.96527 4986 ft 219 kts 44°
2026-05-03 20:15 50.83604 -1.94543 4983 ft 218 kts 67°
2026-05-03 20:15 50.83938 -1.92207 4987 ft 217 kts 88°
2026-05-03 20:15 50.83983 -1.89834 4987 ft 218 kts 89°
2026-05-03 20:16 50.84024 -1.87491 4978 ft 236 kts 89°
2026-05-03 20:16 50.84072 -1.84819 4971 ft 246 kts 89°
2026-05-03 20:16 50.84120 -1.82109 4977 ft 248 kts 89°
2026-05-03 20:16 50.84168 -1.79395 4979 ft 249 kts 89°
2026-05-03 20:17 50.84216 -1.76666 4978 ft 249 kts 89°
2026-05-03 20:17 50.84263 -1.73927 4982 ft 249 kts 89°
2026-05-03 20:17 50.84309 -1.71204 4982 ft 250 kts 89°
2026-05-03 20:17 50.84355 -1.68465 4981 ft 250 kts 89°
2026-05-03 20:18 50.84397 -1.65914 4983 ft 250 kts 89°
2026-05-03 20:18 50.84443 -1.63087 4982 ft 250 kts 89°
2026-05-03 20:18 50.84487 -1.60345 4983 ft 250 kts 89°
2026-05-03 20:18 50.84531 -1.57605 4982 ft 249 kts 89°
2026-05-03 20:19 50.84574 -1.54818 5164 ft 276 kts 89°
2026-05-03 20:19 50.84621 -1.51760 6602 ft 286 kts 89°
2026-05-03 20:19 50.84667 -1.48707 8235 ft 286 kts 90°
2026-05-03 20:19 50.84713 -1.45623 9650 ft 292 kts 90°
2026-05-03 20:20 50.84758 -1.42384 10742 ft 311 kts 90°
2026-05-03 20:20 50.84805 -1.38796 11354 ft 343 kts 90°
2026-05-03 20:20 50.84857 -1.34979 12325 ft 358 kts 91°
2026-05-03 20:20 50.84910 -1.31101 13410 ft 367 kts 91°
2026-05-03 20:21 50.84950 -1.28147 14252 ft 372 kts 91°
2026-05-03 20:21 50.84991 -1.24966 15096 ft 377 kts 91°
2026-05-03 20:21 50.85065 -1.19062 16591 ft 387 kts 91°
2026-05-03 20:21 50.85117 -1.14841 17569 ft 393 kts 91°
2026-05-03 20:22 50.85163 -1.10907 18386 ft 399 kts 91°
2026-05-03 20:22 50.85215 -1.06374 19307 ft 406 kts 92°
2026-05-03 20:22 50.85266 -1.01868 20205 ft 412 kts 92°
2026-05-03 20:22 50.85310 -0.97716 21027 ft 416 kts 92°
2026-05-03 20:23 50.85359 -0.93042 21862 ft 422 kts 92°
2026-05-03 20:23 50.85410 -0.88408 22632 ft 427 kts 91°
2026-05-03 20:23 50.85796 -0.83820 23368 ft 438 kts 79°
2026-05-03 20:23 50.86890 -0.79297 24093 ft 448 kts 64°
2026-05-03 20:24 50.88690 -0.75269 24766 ft 457 kts 48°
2026-05-03 20:24 50.91106 -0.72101 25422 ft 462 kts 32°
2026-05-03 20:24 50.93974 -0.69874 26019 ft 467 kts 22°
2026-05-03 20:24 50.96955 -0.67854 26564 ft 472 kts 22°
2026-05-03 20:25 50.99547 -0.66083 27067 ft 475 kts 23°
2026-05-03 20:25 51.02750 -0.63891 27688 ft 478 kts 22°
2026-05-03 20:25 51.05783 -0.61811 28392 ft 477 kts 22°
2026-05-03 20:25 51.08528 -0.59926 29068 ft 475 kts 23°
2026-05-03 20:26 51.11672 -0.57763 29854 ft 472 kts 23°
2026-05-03 20:26 51.14620 -0.55732 30547 ft 470 kts 23°
2026-05-03 20:26 51.17077 -0.54036 31071 ft 468 kts 23°
2026-05-03 20:26 51.19867 -0.52108 31604 ft 466 kts 23°
2026-05-03 20:27 51.23280 -0.49747 32191 ft 465 kts 23°
2026-05-03 20:27 51.26110 -0.47785 32619 ft 466 kts 23°
2026-05-03 20:27 51.28941 -0.45820 33047 ft 466 kts 23°
2026-05-03 20:27 51.31981 -0.43627 33430 ft 466 kts 25°
2026-05-03 20:28 51.34822 -0.41472 33763 ft 466 kts 25°
2026-05-03 20:28 51.37075 -0.39760 34023 ft 466 kts 25°
2026-05-03 20:28 51.40450 -0.37193 34429 ft 466 kts 25°
2026-05-03 20:28 51.43285 -0.35034 34816 ft 465 kts 25°
2026-05-03 20:29 51.45588 -0.33278 35133 ft 464 kts 26°
2026-05-03 20:29 51.48618 -0.30964 35550 ft 462 kts 26°
2026-05-03 20:29 51.51736 -0.28580 35976 ft 460 kts 26°
2026-05-03 20:29 51.54362 -0.26569 36317 ft 458 kts 26°
2026-05-03 20:30 51.57258 -0.24345 36657 ft 458 kts 26°
2026-05-03 20:30 51.60038 -0.21887 36971 ft 457 kts 33°
2026-05-03 20:30 51.62484 -0.19111 37237 ft 456 kts 39°
2026-05-03 20:30 51.64778 -0.15829 37506 ft 456 kts 46°
2026-05-03 20:31 51.66883 -0.12024 37750 ft 455 kts 53°
2026-05-03 20:31 51.68423 -0.08534 37963 ft 453 kts 59°
2026-05-03 20:31 51.69991 -0.03989 38213 ft 452 kts 67°
2026-05-03 20:31 51.71204 0.00855 38434 ft 450 kts 74°
2026-05-03 20:32 51.72033 0.05623 38626 ft 450 kts 78°
2026-05-03 20:32 51.72705 0.09976 38810 ft 451 kts 78°
2026-05-03 20:32 51.73503 0.15131 39060 ft 450 kts 78°
2026-05-03 20:32 51.74227 0.19817 39291 ft 450 kts 78°
2026-05-03 20:33 51.74961 0.24583 39525 ft 449 kts 78°
2026-05-03 20:33 51.75709 0.29453 39743 ft 448 kts 78°
2026-05-03 20:33 51.76437 0.34212 39930 ft 448 kts 78°
2026-05-03 20:33 51.77120 0.38685 40100 ft 448 kts 78°
2026-05-03 20:34 51.77882 0.43697 40278 ft 448 kts 78°
2026-05-03 20:34 51.78528 0.47955 40425 ft 448 kts 78°
2026-05-03 20:34 51.79129 0.51925 40559 ft 448 kts 78°
2026-05-03 20:34 51.80025 0.57868 40744 ft 448 kts 78°
2026-05-03 20:35 51.80737 0.62593 40881 ft 448 kts 77°
2026-05-03 20:35 51.82688 0.71343 40894 ft 457 kts 69°
2026-05-03 20:36 51.85182 0.80921 40902 ft 463 kts 69°
2026-05-03 20:36 51.87706 0.90680 40896 ft 470 kts 69°
2026-05-03 20:37 51.90182 1.00302 40899 ft 475 kts 69°
2026-05-03 20:37 51.92603 1.09754 40894 ft 479 kts 69°
2026-05-03 20:38 51.95183 1.19877 40898 ft 481 kts 69°
2026-05-03 20:38 51.97674 1.29696 40899 ft 482 kts 69°
2026-05-03 20:39 52.00143 1.39472 40898 ft 481 kts 69°
2026-05-03 20:39 52.02686 1.49584 40897 ft 481 kts 69°
2026-05-03 20:40 52.05156 1.59457 40897 ft 481 kts 69°
2026-05-03 20:40 52.07114 1.67315 40898 ft 481 kts 69°
2026-05-03 20:41 52.09954 1.78762 40901 ft 481 kts 70°
2026-05-03 20:41 52.12371 1.88551 40893 ft 481 kts 70°
2026-05-03 20:42 52.14854 1.98656 40895 ft 481 kts 70°
2026-05-03 20:42 52.17316 2.08720 40895 ft 482 kts 70°
2026-05-03 20:43 52.19771 2.18799 40887 ft 482 kts 69°
2026-05-03 20:43 52.22221 2.28907 40890 ft 482 kts 69°
2026-05-03 20:44 52.24670 2.39060 40887 ft 482 kts 69°
2026-05-03 20:44 52.27077 2.49085 40889 ft 482 kts 69°
2026-05-03 20:45 52.29507 2.59251 40889 ft 482 kts 70°
2026-05-03 20:45 52.31650 2.69363 40882 ft 481 kts 76°
2026-05-03 20:46 52.33474 2.79773 40887 ft 480 kts 76°
2026-05-03 20:46 52.35299 2.90216 40882 ft 480 kts 76°
2026-05-03 20:47 52.37114 3.00659 40883 ft 480 kts 76°
2026-05-03 20:47 52.38884 3.10887 40887 ft 481 kts 76°
2026-05-03 20:48 52.40694 3.21414 40894 ft 481 kts 76°
2026-05-03 20:48 52.42474 3.31822 40891 ft 481 kts 76°
2026-05-03 20:49 52.44260 3.42330 40891 ft 481 kts 76°
2026-05-03 20:49 52.46037 3.52841 40888 ft 481 kts 76°
2026-05-03 20:50 52.47802 3.63349 40880 ft 481 kts 76°
2026-05-03 20:50 52.49527 3.73679 40888 ft 481 kts 77°
2026-05-03 20:51 52.51292 3.84307 40889 ft 481 kts 77°
2026-05-03 20:51 52.53006 3.94698 40887 ft 482 kts 77°
2026-05-03 20:52 52.54744 4.05292 40895 ft 483 kts 77°
2026-05-03 20:52 52.56476 4.15916 40905 ft 483 kts 77°
2026-05-03 20:53 52.58190 4.26498 40905 ft 483 kts 77°
2026-05-03 20:53 52.59875 4.36967 40908 ft 483 kts 77°
2026-05-03 20:54 52.61589 4.47680 40909 ft 483 kts 76°
2026-05-03 20:54 52.64099 4.63496 40904 ft 483 kts 76°
2026-05-03 20:55 52.65779 4.74169 40905 ft 483 kts 77°
2026-05-03 20:55 52.67455 4.84883 40905 ft 483 kts 77°
2026-05-03 20:56 52.69109 4.95528 40908 ft 483 kts 77°
2026-05-03 20:56 52.70760 5.06226 40903 ft 484 kts 77°
2026-05-03 20:57 52.72403 5.16939 40902 ft 484 kts 77°
2026-05-03 20:57 52.74060 5.27583 40904 ft 485 kts 74°
2026-05-03 20:58 52.76286 5.38035 40902 ft 484 kts 71°
2026-05-03 20:58 52.78532 5.48415 40902 ft 484 kts 71°
2026-05-03 20:59 52.80779 5.58864 40900 ft 483 kts 71°
2026-05-03 20:59 52.82985 5.69183 40905 ft 482 kts 72°
2026-05-03 21:00 52.84828 5.77850 40901 ft 482 kts 72°
2026-05-03 21:00 52.87367 5.89855 40900 ft 482 kts 72°
2026-05-03 21:01 52.89565 6.00312 40904 ft 482 kts 72°
2026-05-03 21:01 52.91734 6.10683 40906 ft 482 kts 72°
2026-05-03 21:02 52.93907 6.21133 40902 ft 482 kts 72°
2026-05-03 21:02 52.96080 6.31639 40908 ft 482 kts 72°
2026-05-03 21:03 52.98236 6.42119 40890 ft 483 kts 73°
2026-05-03 21:03 53.00357 6.52480 40900 ft 483 kts 72°
2026-05-03 21:04 53.02499 6.63004 40887 ft 484 kts 72°
2026-05-03 21:04 53.04596 6.73364 40905 ft 485 kts 73°
2026-05-03 21:05 53.06725 6.83933 40903 ft 485 kts 74°
2026-05-03 21:05 53.08846 6.94524 40900 ft 485 kts 74°
2026-05-03 21:06 53.10966 7.05163 40890 ft 485 kts 73°
2026-05-03 21:06 53.13061 7.15737 40896 ft 485 kts 73°
2026-05-03 21:07 53.15155 7.26370 40890 ft 485 kts 73°
2026-05-03 21:07 53.17219 7.36913 40894 ft 485 kts 73°
2026-05-03 21:08 53.19295 7.47580 40890 ft 485 kts 73°
2026-05-03 21:08 53.21361 7.58252 40890 ft 485 kts 73°
2026-05-03 21:09 53.23419 7.68932 40890 ft 485 kts 74°
2026-05-03 21:09 53.25470 7.79634 40888 ft 484 kts 74°
2026-05-03 21:10 53.27501 7.90291 40886 ft 484 kts 74°
2026-05-03 21:10 53.29500 8.00838 40888 ft 484 kts 74°
2026-05-03 21:11 53.31517 8.11540 40897 ft 485 kts 74°
2026-05-03 21:11 53.33702 8.22203 40895 ft 486 kts 70°
2026-05-03 21:12 53.36132 8.32678 40882 ft 486 kts 70°
2026-05-03 21:12 53.38548 8.43174 40886 ft 485 kts 70°
2026-05-03 21:13 53.41048 8.53668 40876 ft 486 kts 66°
2026-05-03 21:13 53.43796 8.63765 40781 ft 489 kts 66°
2026-05-03 21:14 53.45209 8.68982 40266 ft 496 kts 67°
2026-05-03 21:14 53.46624 8.74220 39677 ft 495 kts 67°
2026-05-03 21:14 53.48025 8.79418 38952 ft 495 kts 68°
2026-05-03 21:14 53.49430 8.84643 38349 ft 491 kts 68°
2026-05-03 21:15 53.50853 8.89850 37660 ft 490 kts 66°
2026-05-03 21:15 53.52512 8.94807 37027 ft 489 kts 59°
2026-05-03 21:15 53.54487 8.99443 36385 ft 492 kts 53°
2026-05-03 21:15 53.56763 9.03711 35690 ft 497 kts 46°
2026-05-03 21:16 53.59335 9.07541 34981 ft 500 kts 39°
2026-05-03 21:16 53.62147 9.10994 34266 ft 502 kts 36°
2026-05-03 21:16 53.64896 9.14281 33694 ft 506 kts 36°
2026-05-03 21:16 53.67808 9.17777 32983 ft 509 kts 36°
2026-05-03 21:17 53.70683 9.21235 32330 ft 511 kts 36°
2026-05-03 21:17 53.72602 9.23546 31868 ft 512 kts 36°
2026-05-03 21:17 53.76435 9.28168 30974 ft 515 kts 35°
2026-05-03 21:17 53.79338 9.31677 30275 ft 517 kts 35°
2026-05-03 21:18 53.82332 9.34910 29620 ft 513 kts 26°
2026-05-03 21:18 53.85498 9.37515 28909 ft 508 kts 24°
2026-05-03 21:18 53.88676 9.40097 28259 ft 502 kts 25°
2026-05-03 21:18 53.91798 9.42645 27585 ft 497 kts 24°
2026-05-03 21:19 53.94880 9.45165 26934 ft 493 kts 24°
2026-05-03 21:19 53.97948 9.47677 26289 ft 488 kts 24°
2026-05-03 21:19 54.00911 9.49758 25682 ft 481 kts 14°
2026-05-03 21:19 54.04170 9.50947 25015 ft 474 kts
2026-05-03 21:20 54.07391 9.51966 24400 ft 469 kts
2026-05-03 21:20 54.10450 9.52948 23809 ft 466 kts
2026-05-03 21:20 54.13501 9.53928 23213 ft 461 kts
2026-05-03 21:20 54.16719 9.54963 22589 ft 456 kts
2026-05-03 21:21 54.19815 9.55963 21970 ft 452 kts
2026-05-03 21:21 54.22871 9.56955 21378 ft 447 kts
2026-05-03 21:21 54.25892 9.58004 20776 ft 441 kts 13°
2026-05-03 21:21 54.28677 9.60016 20187 ft 434 kts 26°
2026-05-03 21:22 54.31326 9.62418 19560 ft 427 kts 26°
2026-05-03 21:22 54.33921 9.64753 18959 ft 419 kts 26°
2026-05-03 21:22 54.36408 9.66994 18376 ft 412 kts 27°
2026-05-03 21:22 54.38920 9.69261 17778 ft 406 kts 26°
2026-05-03 21:23 54.41385 9.71487 17172 ft 400 kts 26°
2026-05-03 21:23 54.43815 9.73680 16567 ft 394 kts 26°
2026-05-03 21:23 54.46210 9.75842 16146 ft 384 kts 26°
2026-05-03 21:23 54.48541 9.77953 15728 ft 369 kts 26°
2026-05-03 21:24 54.50751 9.79958 15341 ft 352 kts 26°
2026-05-03 21:24 54.52867 9.81877 14977 ft 337 kts 26°
2026-05-03 21:24 54.54865 9.83692 14816 ft 318 kts 26°
2026-05-03 21:24 54.56756 9.85412 14729 ft 299 kts 26°
2026-05-03 21:25 54.58547 9.87042 14561 ft 286 kts 26°
2026-05-03 21:25 54.60263 9.88604 14278 ft 274 kts 26°
2026-05-03 21:25 54.61893 9.90088 13760 ft 270 kts 26°
2026-05-03 21:25 54.63542 9.91590 13190 ft 268 kts 26°
2026-05-03 21:26 54.65169 9.93074 12642 ft 265 kts 25°
2026-05-03 21:26 54.66780 9.94544 12101 ft 261 kts 25°
2026-05-03 21:26 54.68365 9.95992 11566 ft 258 kts 25°
2026-05-03 21:26 54.69939 9.97431 11071 ft 255 kts 23°
2026-05-03 21:27 54.71489 9.98849 10603 ft 253 kts 24°
2026-05-03 21:27 54.73053 10.00281 10158 ft 250 kts 24°
2026-05-03 21:27 54.74543 10.01645 9777 ft 246 kts 25°
2026-05-03 21:27 54.76042 10.03021 9364 ft 242 kts 24°
2026-05-03 21:28 54.77514 10.04372 8970 ft 238 kts 25°
2026-05-03 21:28 54.78959 10.05703 8583 ft 235 kts 23°
2026-05-03 21:28 54.80375 10.07004 8209 ft 230 kts 23°
2026-05-03 21:28 54.81767 10.08286 7877 ft 224 kts 24°
2026-05-03 21:29 54.83144 10.09557 7504 ft 222 kts 23°
2026-05-03 21:29 54.84500 10.10803 7094 ft 222 kts 22°
2026-05-03 21:29 54.85850 10.12048 6744 ft 218 kts 23°
2026-05-03 21:29 54.87142 10.13334 6524 ft 216 kts 30°
2026-05-03 21:30 54.88358 10.14899 6294 ft 220 kts 33°
2026-05-03 21:30 54.89572 10.16491 6056 ft 219 kts 33°
2026-05-03 21:30 54.90765 10.18052 5837 ft 219 kts 33°
2026-05-03 21:30 54.91964 10.19675 5605 ft 219 kts 39°
2026-05-03 21:31 54.92671 10.21970 5355 ft 220 kts 84°
2026-05-03 21:31 54.92367 10.24451 5139 ft 208 kts 127°
2026-05-03 21:31 54.91324 10.26003 4923 ft 195 kts 165°
2026-05-03 21:31 54.90049 10.26224 4703 ft 181 kts 198°
2026-05-03 21:32 54.88987 10.25251 4486 ft 172 kts 227°
2026-05-03 21:32 54.88362 10.23550 4334 ft 168 kts 249°
2026-05-03 21:32 54.87984 10.21640 4226 ft 169 kts 251°
2026-05-03 21:32 54.87610 10.19704 4079 ft 170 kts 251°
2026-05-03 21:33 54.87233 10.17775 3905 ft 169 kts 251°
2026-05-03 21:33 54.86856 10.15843 3752 ft 169 kts 252°
2026-05-03 21:33 54.86479 10.13912 3603 ft 170 kts 252°
2026-05-03 21:33 54.86088 10.11983 3453 ft 170 kts 251°
2026-05-03 21:34 54.85679 10.10065 3256 ft 171 kts 251°
2026-05-03 21:34 54.85265 10.08133 3033 ft 169 kts 251°
2026-05-03 21:34 54.84826 10.06258 2823 ft 169 kts 241°
2026-05-03 21:34 54.84071 10.04700 2671 ft 169 kts 235°
2026-05-03 21:35 54.83554 10.02908 2561 ft 167 kts 255°
2026-05-03 21:35 54.83621 10.00915 2432 ft 169 kts 282°
2026-05-03 21:35 54.84075 9.99056 2334 ft 171 kts 294°
2026-05-03 21:35 54.84655 9.97253 2248 ft 172 kts 295°
2026-05-03 21:36 54.85335 9.95530 2157 ft 172 kts 306°
2026-05-03 21:36 54.86175 9.94139 2029 ft 164 kts 315°
2026-05-03 21:36 54.87050 9.92967 1950 ft 155 kts 317°
2026-05-03 21:36 54.87913 9.91825 1951 ft 158 kts 316°
2026-05-03 21:37 54.88757 9.90638 1926 ft 155 kts 315°
2026-05-03 21:37 54.89575 9.89429 1920 ft 150 kts 314°
2026-05-03 21:37 54.90318 9.88318 1898 ft 145 kts 313°
2026-05-03 21:37 54.91090 9.87147 1460 ft 145 kts 314°
2026-05-03 21:38 54.91820 9.86053 1056 ft 136 kts 315°
2026-05-03 21:38 54.92522 9.85009 869 ft 132 kts 315°
2026-05-03 21:38 54.93211 9.83983 679 ft 129 kts 316°
2026-05-03 21:38 54.93891 9.82970 506 ft 128 kts 317°
2026-05-03 21:39 54.94564 9.81960 321 ft 129 kts 316°
2026-05-03 21:39 54.95239 9.80952 126 ft 129 kts 318°
2026-05-03 21:39 54.95915 9.79964 -1 ft 119 kts 316°
2026-05-03 21:39 54.96363 9.79280 -1 ft 33 kts 319°
2026-05-03 21:40 54.96485 9.79098 -2 ft 11 kts 302°
2026-05-03 21:40 54.96450 9.78977 -1 ft 13 kts 230°
2026-05-03 21:40 54.96384 9.78839 0 ft 17 kts 230°
2026-05-03 21:40 54.96336 9.78747 2 ft 3 kts 223°
2026-05-03 21:41 54.96318 9.78736 3 ft 7 kts 137°
2026-05-03 21:41 54.96306 9.78764 4 ft 0 kts 139°